RH
73 74 74 72 71 71 71 70 68 67 70 74 78 85 95 97 95 98 94 95 96 92 94 89 92 94 73 59 64 60 57 54 39 39 42 39 40 37 26 14 11 13 14 15 15 15 14 15 15 15 14 14 14 14 16 17 18 19 21 25 29 32 31 30 28 28 29 29 28 25 22 20 22 24 25 25 24 23 22 22 21 18 17 19 21 24 30 36 40 38 36 30 18 14 14 14 15
73 72 72 70 69 68 68 68 66 67 71 78 85 91 97 95 91 97 95 94 94 89 89 85 89 91 75 70 71 53 45 49 39 35 36 36 41 34 20 11 11 14 15 15 14 14 14 14 14 13 14 14 14 15 16 17 18 20 24 28 31 32 32 32 33 34 35 35 35 32 27 24 24 24 24 23 22 22 21 21 21 21 21 24 26 30 35 41 43 40 37 28 16 14 13 13 15
70 70 71 71 70 68 66 64 64 68 74 79 86 94 97 94 94 97 96 95 90 84 82 77 83 89 86 81 69 48 41 46 42 36 31 35 38 25 16 11 10 14 15 15 14 14 14 13 13 14 15 15 15 16 18 19 20 23 29 32 33 33 34 35 37 39 40 40 39 37 32 28 26 24 23 23 23 23 22 24 25 26 27 30 34 35 38 41 42 40 37 27 17 15 14 14 17
62 63 64 65 66 65 62 59 60 70 81 81 83 95 97 93 95 96 97 96 89 83 76 71 78 86 86 70 51 41 37 39 40 38 28 31 34 19 15 12 10 16 15 15 13 13 13 13 14 15 16 15 16 19 22 24 26 31 36 39 39 38 37 38 38 39 41 43 43 42 38 33 29 26 26 25 25 25 26 30 33 34 34 37 41 40 40 40 39 38 37 28 20 17 15 15 19
52 50 49 52 55 55 56 57 61 72 85 87 88 94 94 91 92 93 95 93 84 81 77 71 72 71 68 54 44 39 36 36 35 36 28 25 26 16 14 12 11 17 15 14 13 13 13 13 15 16 17 18 21 24 27 30 34 38 41 43 43 41 42 41 40 41 42 44 46 46 43 38 35 32 31 29 27 25 27 33 36 37 37 40 43 42 41 38 36 37 37 32 28 22 17 17 20
42 39 41 46 51 53 54 61 69 77 84 92 96 93 92 92 92 92 92 89 78 79 79 72 66 58 52 47 46 41 38 38 31 33 28 20 19 14 13 11 14 17 15 14 12 13 13 14 16 17 18 21 25 28 30 33 37 40 42 45 46 45 46 44 41 43 44 45 46 47 46 43 40 36 34 33 31 27 28 34 36 38 40 41 42 40 39 37 37 39 39 34 33 28 22 19 21
39 41 49 53 58 58 57 67 77 84 86 91 96 92 94 93 93 93 90 89 79 77 80 73 64 54 49 48 46 42 38 35 30 31 26 18 15 13 12 11 15 17 15 13 11 13 13 16 18 19 21 23 26 29 32 34 36 38 42 46 49 50 48 45 42 43 45 45 47 49 50 48 44 39 37 36 33 29 31 37 39 40 41 41 40 38 38 39 41 42 40 34 31 29 25 23 22
40 50 59 62 66 65 67 74 81 87 86 87 94 94 95 94 95 92 84 88 82 76 78 69 59 50 48 48 44 41 37 31 31 30 22 17 13 12 12 11 16 17 15 12 11 12 13 17 20 23 25 27 28 30 33 34 34 36 41 45 48 48 46 43 43 45 46 46 46 48 51 52 51 47 45 41 37 36 38 41 41 40 39 39 38 36 36 38 40 39 34 28 26 27 27 25 23
43 59 66 70 73 76 83 86 87 89 88 88 95 97 95 93 95 89 79 84 81 74 73 64 54 47 46 46 43 39 35 32 32 28 21 17 12 12 11 11 16 17 14 11 11 11 14 18 22 27 29 30 30 32 34 33 33 34 37 40 40 40 39 41 44 46 46 47 47 48 51 52 52 50 47 43 40 41 43 42 41 41 40 37 35 35 36 38 37 32 26 23 24 27 26 25 30
45 65 71 77 82 85 91 93 92 90 91 94 97 98 95 91 91 89 83 86 84 75 69 62 52 47 45 45 43 38 34 31 32 27 22 18 12 11 10 11 17 16 13 11 10 11 15 21 25 29 31 32 31 32 32 30 29 30 32 33 36 38 39 42 43 44 44 46 46 46 47 47 48 46 43 42 43 44 42 40 41 46 45 38 36 37 38 36 33 27 24 24 24 24 24 27 36
42 66 73 80 86 86 90 91 92 90 90 96 97 97 96 89 85 88 89 87 82 71 65 59 51 49 48 45 42 39 34 31 32 28 23 19 13 10 9 11 17 17 13 10 10 12 17 23 28 29 31 32 32 31 31 28 26 27 27 30 38 44 44 43 43 44 44 43 42 42 42 43 44 43 42 42 43 42 40 39 43 48 47 41 40 40 37 34 31 28 26 27 26 24 24 28 36
37 61 74 79 84 84 87 88 90 92 91 96 96 94 96 92 83 85 88 85 79 69 66 62 53 51 50 45 42 38 33 32 32 29 27 22 14 10 9 11 17 17 13 10 9 12 18 24 28 30 32 33 33 31 29 27 25 26 27 32 41 46 44 43 45 45 43 40 39 39 39 39 39 41 40 40 41 41 42 43 45 47 45 42 39 37 34 31 30 30 29 28 26 24 24 29 35
32 53 73 80 85 87 86 88 93 93 92 98 97 93 95 94 87 86 88 87 84 74 70 66 58 55 52 46 42 38 34 34 34 31 30 24 15 11 8 11 16 17 14 9 8 11 17 24 28 30 31 32 33 31 29 28 28 30 32 36 40 42 42 43 45 45 43 41 39 38 36 34 35 37 38 39 40 42 44 46 46 45 43 39 35 32 30 30 28 27 25 22 20 19 25 34 34
32 46 69 80 86 89 86 86 95 94 92 99 98 93 94 95 90 89 91 90 86 76 71 68 63 60 54 47 43 39 36 35 35 31 30 24 15 11 8 10 15 17 14 9 8 11 18 24 28 30 31 31 32 32 32 33 33 35 38 39 40 42 43 44 45 45 43 40 37 35 32 31 31 32 34 36 39 41 42 41 41 39 37 34 31 28 26 25 22 19 17 15 14 17 28 36 33
37 44 63 78 84 87 86 83 89 91 93 98 98 94 94 98 95 91 89 88 85 74 72 72 64 60 54 48 44 40 37 36 35 31 29 25 17 11 8 9 14 16 14 10 7 11 18 24 28 29 30 30 31 33 34 35 35 37 39 39 40 41 41 42 42 41 38 35 33 31 29 27 27 28 30 32 35 37 37 35 34 32 30 27 25 23 20 18 15 14 13 14 18 24 31 35 34
40 46 61 76 84 85 85 82 83 87 92 98 98 93 92 95 97 95 90 87 85 74 74 77 67 60 54 49 46 42 38 35 35 32 29 27 19 13 9 8 13 16 15 11 9 12 18 24 27 27 27 27 29 31 32 33 34 36 38 37 36 36 38 38 36 34 33 31 31 30 28 27 26 28 28 30 32 33 32 29 25 23 21 19 18 15 13 12 11 12 14 18 24 30 35 38 40
44 49 61 77 83 84 85 81 83 85 90 97 94 90 90 92 95 95 90 85 81 76 74 74 70 63 56 50 48 45 39 36 35 32 30 28 21 14 9 8 11 16 16 12 9 13 18 22 25 25 23 24 27 28 29 31 33 34 34 34 34 32 33 32 30 31 31 29 30 28 27 26 25 27 29 29 29 28 25 21 19 19 20 18 16 13 11 12 12 14 16 21 26 31 36 39 40
50 53 61 76 83 84 84 79 82 84 87 95 91 90 93 92 94 93 93 90 84 82 76 76 77 67 58 53 50 47 40 37 35 33 32 29 24 17 10 8 11 16 16 13 9 11 18 21 23 22 21 21 23 26 27 29 30 31 32 32 31 30 27 25 24 26 26 26 27 26 23 22 23 26 27 27 25 22 19 18 20 22 23 21 19 19 20 20 19 19 19 21 24 28 31 33 33
55 58 62 72 80 81 81 81 86 88 90 97 93 92 94 89 93 95 95 95 94 91 80 78 80 68 60 55 51 50 43 38 35 34 34 31 27 20 12 8 10 15 17 14 9 10 16 18 20 20 19 19 20 23 25 26 27 28 30 30 30 29 25 24 23 21 20 20 21 21 19 19 20 23 23 22 20 18 18 21 25 26 26 23 20 21 24 24 22 21 20 21 23 26 27 26 25
59 62 70 74 77 76 78 84 90 91 91 96 95 94 94 87 91 96 93 93 95 90 79 75 71 65 63 55 51 50 44 41 36 34 34 32 29 21 13 9 9 14 17 16 11 10 15 16 17 19 18 17 17 20 22 23 26 27 27 29 32 31 28 27 26 22 17 16 16 15 15 17 17 18 17 17 17 18 19 23 27 26 22 19 17 16 18 20 19 20 20 21 23 29 33 29 22
65 66 77 82 81 79 78 82 87 89 90 93 95 96 98 90 87 90 89 90 88 81 77 77 68 62 60 53 50 48 44 42 37 36 34 32 32 23 15 10 8 13 16 16 13 10 15 17 15 17 18 15 14 15 19 22 24 26 28 31 32 31 29 25 22 17 14 14 13 11 12 14 14 14 15 15 16 15 15 16 18 16 12 11 12 13 15 16 17 18 19 20 22 29 34 32 26
67 67 76 84 85 84 79 81 84 85 88 90 90 94 94 87 84 86 85 87 87 79 78 81 72 61 56 52 48 44 42 40 38 37 34 33 33 26 18 11 8 12 15 17 14 9 15 22 17 14 16 12 11 13 17 20 21 24 29 32 33 32 28 21 19 15 11 11 10 10 10 11 14 14 14 13 11 9 9 9 9 8 7 8 9 12 14 16 18 18 19 20 21 24 25 25 25
64 67 75 83 85 82 82 85 82 80 83 85 86 91 90 84 86 88 84 86 85 78 79 82 75 65 58 52 45 41 41 40 39 38 34 33 32 27 20 12 8 11 14 16 16 10 13 27 23 14 14 10 10 15 16 18 21 24 27 33 40 39 31 26 26 23 17 15 11 9 11 13 16 15 12 10 8 7 8 8 7 7 7 8 9 11 14 17 19 19 19 20 20 22 21 19 20
65 73 81 85 79 71 82 91 81 76 80 83 85 88 90 89 91 88 85 91 88 80 85 83 74 70 62 52 45 41 42 41 40 38 35 33 32 28 22 16 9 10 14 14 17 11 9 26 28 16 12 8 10 14 14 17 23 25 25 32 44 44 36 31 29 26 24 23 18 13 14 18 18 15 12 11 8 8 7 7 8 8 8 8 9 12 15 18 20 19 18 18 18 19 19 19 19
66 76 88 91 80 64 77 93 82 77 81 84 86 87 92 92 91 88 86 93 88 81 86 82 77 75 65 56 50 44 44 44 41 38 35 34 31 28 24 20 11 8 13 14 16 13 7 20 31 21 10 7 9 11 11 15 20 21 23 31 43 44 36 31 28 25 24 22 20 18 18 20 19 18 15 11 9 10 10 9 9 9 9 8 10 12 16 19 19 17 16 15 15 16 17 18 20
57 60 74 82 77 62 70 85 79 81 87 89 89 87 91 92 88 87 88 86 79 76 79 78 79 73 63 60 54 48 48 46 42 36 35 35 31 27 25 22 13 8 12 14 15 14 5 13 30 25 9 6 7 7 10 14 17 18 21 30 39 38 29 26 26 23 21 19 17 17 20 19 18 18 15 12 12 14 13 11 10 10 10 9 10 13 16 19 17 15 14 12 12 14 16 16 17
41 40 52 63 68 58 62 73 76 84 89 89 91 87 86 90 89 90 91 86 77 77 77 74 73 65 62 62 56 51 52 50 43 35 34 35 31 26 24 22 14 8 11 14 15 14 6 7 26 27 10 5 6 6 11 14 17 19 21 25 28 29 24 21 21 21 21 20 18 16 18 17 16 16 14 13 14 14 13 14 13 11 11 11 11 13 15 17 15 13 12 12 12 12 14 15 15
29 34 42 52 58 52 57 71 78 86 88 86 88 85 82 84 90 91 89 85 80 81 77 72 68 62 62 63 60 57 55 52 44 35 32 32 30 25 23 23 15 8 10 14 15 14 8 4 21 29 12 4 5 6 11 14 18 20 21 21 19 21 22 18 16 19 20 19 19 21 20 16 14 15 13 13 13 13 13 16 15 12 11 11 11 12 14 15 14 12 12 12 11 10 11 12 12
22 26 32 41 46 49 60 71 76 79 80 79 77 76 76 79 88 89 83 81 81 79 77 73 68 63 63 64 63 61 58 54 45 35 31 29 27 23 22 22 15 9 10 13 15 14 8 3 16 27 14 4 5 6 10 13 18 21 20 18 16 16 20 21 18 19 21 19 17 20 21 16 12 12 12 12 13 13 14 15 16 14 12 11 11 11 13 14 13 12 12 11 10 9 9 9 10
20 20 22 26 30 39 49 56 63 68 69 68 67 70 75 78 82 83 80 80 81 76 73 74 73 69 66 63 62 61 59 55 45 34 31 28 25 22 22 21 14 9 9 11 15 15 8 4 13 22 14 4 4 6 8 12 19 22 19 17 16 15 16 19 19 20 24 24 20 17 16 15 13 13 12 12 13 14 15 15 16 17 15 12 11 11 12 13 12 11 10 10 10 9 7 8 8
20 21 20 18 18 25 32 36 43 51 57 56 55 61 69 72 75 78 77 78 81 79 72 70 72 72 69 64 62 62 59 54 45 32 27 29 25 21 20 20 14 9 10 11 14 15 7 4 11 17 12 5 4 6 7 12 20 23 19 16 17 16 15 17 19 21 23 23 20 16 14 15 15 14 13 13 13 14 15 14 15 19 17 14 11 10 11 12 12 10 9 8 8 7 6 7 7
12 18 21 24 24 24 27 28 32 37 42 44 43 50 58 60 63 69 70 72 79 80 75 70 68 68 70 67 63 63 60 57 50 33 26 28 25 21 19 19 14 8 9 11 13 15 8 5 12 15 11 4 4 5 6 14 22 22 19 18 18 18 17 18 18 17 17 16 17 17 15 13 13 14 15 16 14 13 13 13 16 19 18 15 12 9 10 11 11 9 8 8 7 7 7 7 8
4 7 13 21 28 34 31 26 30 31 31 32 32 42 54 54 54 62 69 74 78 77 74 73 69 66 68 68 65 63 61 62 57 36 26 29 26 22 19 18 14 8 9 11 14 16 7 5 13 15 10 4 4 5 6 15 23 21 18 18 19 19 18 17 16 13 14 15 16 16 15 15 15 15 15 15 15 14 14 16 19 20 18 15 12 9 9 10 10 9 8 7 6 6 6 8 9
3 3 5 11 22 37 39 31 30 28 27 30 31 42 56 55 51 57 64 67 70 72 73 75 73 67 66 68 66 64 62 65 61 38 25 28 27 23 20 17 13 8 9 11 14 16 7 5 13 15 8 3 4 4 6 16 22 20 18 17 17 17 17 17 17 15 15 16 16 16 17 19 19 17 16 16 16 17 19 21 22 20 16 15 12 10 9 9 10 9 7 6 6 6 6 8 10
3 3 3 5 14 29 45 53 49 37 31 31 36 50 57 55 54 55 54 54 58 61 65 73 76 71 68 69 65 64 64 66 63 41 25 27 28 25 21 18 13 8 9 11 14 16 7 5 13 12 6 3 4 4 7 15 21 19 18 17 16 15 16 16 17 17 16 16 17 17 17 20 20 19 19 19 18 20 25 27 25 22 18 14 11 10 9 10 11 9 7 6 5 6 6 7 9
4 3 2 3 8 18 39 61 62 51 42 32 34 46 53 60 65 65 61 59 58 55 61 71 74 71 69 70 66 64 64 66 65 45 28 29 30 28 24 19 14 8 9 11 14 16 7 7 13 9 4 3 3 5 9 15 19 18 17 17 16 14 15 15 14 14 14 14 13 14 16 19 21 21 20 18 17 21 29 31 29 27 23 17 14 13 13 13 12 11 10 8 5 5 6 7 8
5 4 3 2 4 9 24 43 53 54 46 33 28 32 51 71 76 76 75 75 70 62 64 68 69 70 68 70 70 66 64 65 65 49 31 30 31 30 27 22 16 9 9 10 15 15 6 10 14 7 3 3 4 6 9 14 17 16 15 15 14 13 13 11 10 11 11 11 10 11 15 18 19 21 19 16 17 24 30 30 29 28 25 21 15 12 13 15 14 12 11 9 7 5 5 6 7
7 5 5 3 2 4 14 30 43 49 42 34 30 25 47 75 75 75 76 75 74 63 58 57 61 68 64 69 75 68 62 63 67 58 37 32 35 33 28 23 18 12 8 10 15 13 6 11 13 6 3 3 5 7 9 12 14 13 13 12 12 11 10 9 8 9 9 9 9 9 12 15 16 17 15 14 17 24 29 30 28 28 28 26 17 10 10 12 12 10 10 10 8 5 5 6 7
8 7 6 4 4 3 10 31 44 51 43 36 38 32 45 70 69 67 70 70 69 62 58 56 58 64 65 75 82 69 61 64 72 68 46 34 36 36 31 24 18 13 8 8 13 11 5 11 12 5 3 4 5 8 9 10 11 11 11 9 9 9 8 8 7 7 8 8 8 9 11 13 18 19 16 17 20 24 28 29 28 29 33 32 24 13 8 8 8 8 9 10 9 8 6 6 6
11 9 7 4 7 6 15 42 51 53 53 46 53 52 50 65 65 59 64 66 65 63 64 63 59 65 74 84 81 68 61 64 72 72 52 37 36 35 29 24 19 15 10 8 12 11 5 9 10 4 3 4 5 7 8 8 9 9 9 8 7 7 7 7 6 7 7 7 7 9 11 14 21 22 19 21 25 26 27 27 26 28 32 32 29 22 14 10 7 6 7 7 8 8 8 7 6
13 12 11 5 7 9 22 53 59 53 61 63 69 68 51 52 61 68 73 66 61 61 62 64 62 65 77 84 79 71 65 62 70 73 59 43 36 33 29 25 20 16 12 8 11 11 6 8 9 3 3 4 5 7 7 6 7 8 8 8 7 7 7 6 5 7 7 7 7 9 10 14 20 21 19 19 21 21 20 20 21 23 23 24 27 27 21 16 11 8 8 8 9 8 7 7 8
14 14 14 9 8 11 24 53 61 51 56 60 61 57 42 40 51 68 76 64 56 57 57 62 64 63 71 79 79 74 68 66 72 75 66 48 35 32 31 26 19 17 14 8 9 11 7 6 7 3 3 4 4 5 5 5 6 7 8 8 8 7 7 6 5 7 7 6 6 8 9 12 16 17 17 17 18 18 16 15 18 21 23 25 26 24 21 19 16 13 12 13 14 12 9 8 8
11 14 17 13 8 12 26 46 57 57 55 52 51 44 32 35 48 60 66 61 54 52 53 59 66 69 71 73 73 70 67 73 79 78 71 54 40 38 36 29 22 18 15 9 7 10 8 5 5 4 3 4 5 5 5 4 4 7 8 7 7 6 6 5 6 7 8 6 6 7 8 9 11 14 18 21 22 19 17 18 19 21 24 26 24 21 19 17 16 18 18 16 14 15 14 11 8
8 13 18 18 11 15 33 40 45 59 61 51 53 56 43 38 52 63 62 58 51 47 52 59 65 72 73 67 65 65 68 77 83 80 76 65 52 48 45 38 31 21 16 12 8 9 9 6 5 4 3 3 4 4 4 4 5 7 8 7 6 6 5 5 6 8 8 7 7 6 7 8 9 12 17 22 22 21 23 23 20 18 18 16 14 17 20 17 16 21 23 19 13 12 13 12 11
6 12 18 22 16 14 31 36 33 50 63 53 50 62 66 58 60 64 53 44 43 44 54 65 68 72 75 70 64 62 67 77 83 79 75 70 60 54 53 49 42 29 19 14 10 8 9 8 5 4 4 3 4 4 4 4 5 7 7 7 6 5 5 5 6 8 8 7 7 6 6 7 8 10 13 17 18 20 25 24 17 13 10 8 7 11 15 14 14 21 28 27 18 10 10 11 11
6 10 15 22 22 15 21 29 30 39 54 56 49 50 64 68 63 56 40 28 31 39 54 69 73 73 76 78 71 63 62 71 83 82 74 70 63 56 54 54 49 37 23 16 11 8 8 8 6 4 4 4 3 4 4 4 5 7 7 6 6 5 5 5 6 7 8 8 7 7 7 6 7 9 10 12 12 13 17 16 11 7 6 5 6 6 8 10 12 18 27 30 23 15 13 13 12
7 9 12 17 24 21 17 18 24 31 35 45 53 51 53 53 42 34 25 18 21 30 46 63 72 71 69 70 70 67 63 64 76 82 76 72 67 58 53 52 51 41 26 17 12 9 8 8 7 4 3 4 4 4 4 4 5 7 7 6 6 6 5 5 5 6 8 8 8 7 7 7 7 8 8 9 9 8 8 8 6 5 5 4 4 4 5 6 7 11 17 22 21 19 17 15 14
9 8 10 14 21 23 21 15 14 20 20 29 50 56 52 45 32 22 18 17 18 21 34 52 63 65 62 60 62 68 72 68 70 75 73 71 68 61 54 52 51 43 30 22 16 12 10 8 8 6 3 3 4 4 4 5 6 6 6 6 6 6 5 5 5 6 7 8 8 7 7 7 6 7 7 7 7 7 6 6 5 5 5 4 3 3 3 3 4 6 11 17 20 19 17 15 13
9 8 8 12 18 21 23 20 14 14 11 18 43 57 54 47 38 28 20 18 17 15 26 44 52 57 59 60 60 68 78 76 70 70 71 72 71 65 59 56 55 48 40 33 23 14 11 9 9 7 5 3 3 4 4 5 6 5 5 6 6 6 5 5 5 6 7 7 8 7 6 7 6 6 6 6 6 6 5 5 5 4 4 3 3 3 3 3 4 5 10 16 19 16 15 15 13
10 10 10 10 16 17 16 16 14 13 11 14 32 51 54 48 39 28 18 16 16 14 21 30 35 41 50 59 66 70 75 75 71 70 73 77 74 68 63 59 57 54 49 42 30 18 12 10 9 9 7 5 3 4 5 5 5 5 5 5 5 6 6 5 5 5 7 8 8 7 6 6 6 5 5 5 6 5 5 5 4 4 3 3 3 3 3 4 6 8 11 15 17 15 16 17 16
12 12 12 10 13 14 13 12 8 8 10 13 26 46 51 44 35 30 27 21 16 21 29 27 21 23 30 44 60 69 73 71 69 69 75 82 77 71 68 61 58 57 51 44 34 20 12 9 9 9 8 6 4 4 4 5 5 4 5 5 5 6 5 5 5 5 6 8 8 7 6 5 5 5 5 5 5 5 4 4 3 3 3 3 3 3 4 7 9 12 14 16 17 17 18 18 18
22 18 16 14 13 11 11 13 10 7 7 8 18 36 42 35 32 37 39 28 14 18 30 27 21 19 15 19 36 60 74 72 68 67 72 82 80 71 69 64 61 58 50 45 37 22 12 10 9 8 9 8 6 4 4 4 5 4 4 5 4 5 6 6 5 5 6 7 8 7 5 4 4 4 4 4 4 4 3 3 3 3 3 3 3 3 6 10 13 15 17 17 18 18 17 17 16
33 28 24 22 20 20 19 20 18 13 11 9 10 17 23 25 28 30 27 20 12 10 14 23 36 35 17 4 14 45 70 72 70 70 70 76 79 73 70 67 65 62 52 45 37 23 12 10 9 8 8 9 7 5 4 3 4 5 4 5 5 4 5 6 6 6 6 7 8 8 6 5 5 4 4 4 3 3 3 3 3 3 3 3 3 4 7 11 14 15 17 18 17 17 16 15 15
37 41 42 35 29 28 26 26 25 21 19 16 11 11 12 15 21 22 18 15 18 20 16 22 39 39 20 3 4 31 65 73 69 70 71 73 73 70 69 70 70 67 60 51 38 23 13 8 8 8 7 8 9 7 5 4 3 4 4 4 4 4 4 5 6 6 6 7 7 7 6 5 5 4 4 4 3 3 3 2 3 3 3 3 3 5 8 12 14 15 17 18 17 17 16 15 14
24 36 45 44 43 42 33 26 25 25 23 17 12 12 11 16 25 32 36 36 39 46 42 34 34 28 16 7 3 14 44 64 66 68 69 69 69 69 67 68 71 71 65 57 42 26 16 11 8 8 7 7 9 8 5 4 4 4 5 5 4 4 3 4 6 7 6 6 7 7 7 6 5 5 4 4 3 2 3 3 2 2 2 3 4 5 9 12 13 15 17 17 16 17 17 16 16
20 34 45 46 49 54 49 37 30 30 30 25 19 14 21 40 51 50 54 55 50 53 60 53 39 28 17 10 6 4 12 35 60 67 59 59 67 71 70 66 67 73 72 60 46 33 24 19 13 9 8 6 7 7 6 5 4 4 4 5 5 4 3 3 6 7 7 7 6 6 7 6 6 5 4 4 3 3 3 2 2 3 2 3 4 6 9 11 12 14 16 16 16 17 18 19 18
33 50 60 55 54 60 57 46 38 34 33 34 27 22 38 63 66 56 54 51 38 38 57 59 41 32 28 17 9 5 1 10 33 40 35 51 70 72 72 69 63 71 75 62 48 39 30 22 16 12 9 7 6 6 7 6 5 5 4 4 5 4 3 3 4 7 8 7 7 6 6 6 6 5 5 4 4 3 3 2 2 3 2 3 5 6 9 10 11 13 15 16 16 17 18 20 21
41 50 59 57 52 51 48 43 40 35 31 30 23 25 46 64 64 59 59 57 43 29 41 52 40 31 34 27 14 8 5 3 8 18 29 53 76 77 73 70 63 65 72 67 54 43 37 29 19 12 8 7 8 6 7 7 5 5 4 4 5 4 3 3 3 5 7 8 8 6 6 6 6 6 5 4 4 3 3 3 2 3 3 3 4 6 8 9 10 11 13 15 16 17 17 19 21
Wind_Speed
5 5 5 4 3 2 1 1 2 4 5 5 6 8 11 11 7 3 8 13 13 13 13 11 12 12 10 8 6 6 10 8 8 10 8 8 9 8 6 5 5 7 9 9 9 9 9 9 9 9 10 10 10 11 10 11 11 12 12 12 12 12 13 14 14 14 14 13 13 12 12 12 13 13 12 12 12 11 11 10 10 10 10 9 9 8 8 8 9 10 10 11 12 11 11 11 12
6 5 5 5 3 3 3 3 4 6 7 7 7 9 10 8 5 3 11 13 12 12 10 10 12 11 9 7 7 7 10 9 8 9 8 9 10 7 6 6 6 6 8 9 10 9 9 9 10 10 11 12 12 12 11 11 12 12 12 12 11 12 13 14 14 14 14 14 13 12 12 12 12 12 12 12 12 11 11 10 10 9 9 9 8 8 8 8 9 10 10 11 11 11 12 12 13
7 7 7 6 5 6 6 5 6 7 8 8 7 9 8 6 5 6 13 14 14 12 8 9 10 10 11 8 6 7 9 9 8 7 8 10 9 7 6 5 6 6 8 10 9 9 9 9 10 11 12 12 12 12 12 12 12 12 12 11 11 11 12 13 13 14 14 13 13 12 12 12 12 12 12 11 11 11 10 10 10 9 8 8 8 7 7 8 9 10 10 11 11 11 12 13 14
9 9 9 8 8 8 8 7 6 7 8 8 8 9 7 6 2 10 15 15 15 11 9 8 8 9 10 7 6 7 7 8 8 6 7 10 9 6 6 6 6 6 8 9 9 9 9 10 11 12 13 13 13 12 12 12 12 12 11 10 10 11 12 13 13 13 13 12 12 11 11 12 12 11 11 11 10 10 10 9 9 9 8 7 7 7 7 8 8 10 10 10 11 11 12 13 14
10 10 11 10 10 9 9 8 7 8 8 9 9 7 5 3 5 13 14 15 14 11 10 8 8 9 8 6 6 6 6 7 8 7 6 10 9 6 6 6 6 6 8 9 9 9 9 11 12 13 13 13 13 13 12 12 12 12 11 10 10 11 12 13 13 13 12 11 11 11 11 11 11 10 10 10 9 9 9 9 9 8 8 7 7 7 7 8 9 10 10 10 10 10 11 12 13
9 10 11 10 10 9 9 8 7 9 8 10 10 4 1 3 10 15 15 14 12 12 11 8 8 9 8 6 5 6 6 6 8 8 5 9 10 5 6 7 6 6 7 9 8 9 9 11 12 13 13 13 13 13 13 12 12 12 11 11 11 11 12 12 12 13 12 11 11 10 10 10 10 10 10 10 9 9 9 9 9 9 8 8 8 8 8 9 9 10 10 10 10 10 11 12 12
9 9 10 10 10 8 8 8 7 9 9 11 10 4 5 9 13 16 16 13 11 11 10 9 7 8 8 7 6 7 6 6 8 8 5 9 10 6 6 7 6 7 7 8 9 9 9 11 12 13 13 13 13 13 13 13 13 12 12 12 11 11 12 12 12 12 12 11 10 10 10 10 10 10 10 9 9 9 9 10 10 9 9 9 9 9 9 10 10 11 10 10 10 10 11 12 12
8 8 8 8 9 7 7 7 8 9 10 11 8 3 9 13 16 17 15 13 11 9 8 8 7 7 8 7 6 7 6 7 8 8 7 8 9 7 6 6 7 7 8 8 9 9 10 11 12 13 13 12 13 13 13 13 13 13 12 12 12 12 12 12 12 12 12 11 10 9 10 10 10 10 10 10 10 10 10 10 11 10 10 10 11 11 10 10 11 11 11 11 10 11 12 12 12
7 6 7 7 7 5 6 7 7 9 10 10 7 6 12 16 17 16 14 13 12 10 8 6 6 6 8 8 7 7 6 7 8 8 8 8 8 8 7 6 6 7 8 8 9 10 10 11 12 12 12 12 13 13 13 13 13 13 13 13 13 13 13 12 12 12 11 10 10 9 9 10 10 10 10 11 10 10 11 11 11 11 11 12 12 11 11 11 11 12 12 11 11 12 12 13 13
6 6 7 6 5 6 8 8 8 9 10 9 6 8 15 17 16 15 15 14 12 11 7 5 6 5 7 9 7 7 7 7 8 8 8 7 7 8 8 7 6 6 8 9 10 10 11 12 12 12 12 12 12 13 13 13 14 13 13 13 14 13 13 13 12 12 11 10 9 9 9 10 11 11 11 11 11 11 11 11 11 11 12 13 13 12 11 11 12 12 12 13 13 13 13 13 14
7 7 7 6 6 7 9 9 9 8 8 6 5 9 16 17 15 15 14 13 11 10 7 6 6 6 7 8 8 7 7 7 8 9 8 7 7 8 8 8 7 6 7 8 10 11 12 13 13 13 13 13 12 12 13 14 14 13 13 13 13 13 13 13 12 12 11 10 10 9 10 11 11 11 11 11 11 11 11 11 11 12 12 13 13 13 12 12 12 12 13 13 14 13 13 13 14
8 8 7 7 7 8 9 9 10 8 7 6 7 11 17 16 15 15 14 12 11 10 8 7 6 7 7 6 8 7 7 8 9 10 9 7 7 8 8 8 8 7 7 8 10 11 12 13 13 13 13 13 13 12 13 14 14 14 13 13 13 13 12 12 12 12 11 11 10 10 10 11 12 12 11 11 11 11 12 12 12 12 13 13 14 13 13 12 12 12 13 13 13 13 12 13 14
9 9 8 7 6 9 8 8 10 6 4 6 9 12 16 17 16 15 14 12 12 10 9 7 6 7 6 6 8 8 7 7 9 10 9 8 7 8 8 8 8 7 7 7 9 11 12 13 13 13 13 14 13 13 13 14 14 14 14 13 13 12 12 12 12 12 11 11 11 11 11 11 12 12 11 11 11 12 13 13 13 13 13 13 14 13 13 12 12 13 13 14 14 14 14 14 15
10 9 9 7 7 8 7 6 8 5 2 5 8 11 15 16 15 15 15 13 12 11 8 7 7 7 5 6 7 8 8 7 8 9 9 9 8 7 7 8 8 7 7 7 9 11 12 13 14 14 14 14 14 13 14 14 14 14 14 13 13 13 13 13 13 13 12 12 12 12 12 12 13 12 12 12 12 13 14 14 15 14 14 14 14 14 14 13 13 14 15 16 16 16 16 16 16
10 10 10 8 8 7 6 6 6 6 2 5 9 12 13 13 14 14 13 13 13 11 8 7 7 7 5 6 7 7 8 6 7 8 9 9 8 7 7 7 8 7 7 7 9 11 12 14 15 14 15 15 14 14 14 15 14 14 14 14 14 14 14 14 14 14 13 13 13 13 13 13 13 13 13 13 13 14 15 16 16 16 16 16 15 15 15 15 15 16 16 17 17 17 17 16 16
11 11 10 9 8 7 6 5 3 5 3 4 10 12 10 10 13 13 11 11 11 10 9 7 7 7 5 6 6 7 8 6 6 8 9 9 9 8 6 7 7 8 7 6 8 10 12 14 15 15 15 15 14 14 14 15 15 15 15 15 15 15 16 15 15 15 14 14 14 14 14 14 14 14 14 14 14 15 16 17 17 17 18 17 17 16 17 17 17 17 17 17 17 17 16 16 15
11 11 11 11 9 6 5 4 2 4 5 2 4 7 8 9 10 11 12 13 11 10 10 8 9 8 5 5 7 7 7 6 6 7 9 9 8 7 7 7 7 8 7 6 8 10 12 14 15 15 15 15 15 14 15 16 16 16 15 16 16 16 16 16 15 15 15 15 15 15 15 15 15 15 15 15 16 16 17 18 18 18 18 18 18 17 17 18 17 17 17 17 17 16 16 15 15
13 12 12 12 9 6 5 3 2 3 4 3 4 6 8 8 8 10 13 15 14 12 10 7 9 8 5 5 7 7 7 6 6 6 8 8 7 7 6 7 7 8 6 6 7 9 11 14 15 15 16 16 16 15 15 16 16 16 16 17 17 17 17 16 16 16 16 16 15 15 15 16 16 16 16 16 16 17 18 18 18 18 18 18 18 18 17 17 18 17 16 16 16 15 14 15 15
14 13 14 14 11 7 4 2 1 2 3 5 3 9 9 8 8 10 11 13 13 11 10 8 9 8 6 5 6 7 7 7 6 6 6 7 6 6 6 7 8 8 6 6 6 8 10 13 15 14 15 16 16 16 15 16 16 16 16 17 17 17 17 16 16 15 16 16 16 15 16 16 17 17 17 17 17 17 17 18 18 18 18 19 18 18 17 17 17 16 15 15 15 13 13 13 14
14 13 14 14 12 8 4 3 1 3 1 4 0 7 8 9 9 11 11 10 11 11 10 11 10 9 7 6 6 7 8 7 6 5 5 6 5 5 6 6 7 8 7 6 6 7 9 11 14 14 14 15 16 16 15 16 17 17 17 17 17 17 17 16 16 15 15 16 15 15 16 17 17 18 18 17 17 17 17 17 17 18 18 18 18 17 17 16 16 15 14 14 13 12 12 12 13
14 14 14 14 13 9 5 5 1 2 1 4 2 1 5 11 10 10 8 6 9 9 9 11 11 9 7 6 6 7 7 7 6 5 4 4 5 5 6 6 7 8 7 6 6 6 9 10 12 14 14 14 15 16 16 17 18 18 18 17 17 17 17 16 15 15 16 16 16 16 16 17 18 18 18 18 17 16 16 16 17 17 18 18 17 17 16 15 15 14 14 13 12 12 11 11 12
15 15 15 15 14 11 6 4 3 1 1 4 5 4 2 10 8 7 6 7 12 11 10 11 10 9 7 5 5 6 6 7 6 5 3 3 5 5 6 6 7 8 7 7 6 6 8 10 11 13 15 15 15 16 17 18 18 18 17 17 16 16 16 16 15 15 16 16 16 17 17 18 18 18 18 17 17 17 16 16 16 17 17 17 17 16 16 15 14 13 13 13 12 12 12 11 12
16 15 15 16 16 14 7 3 3 2 2 1 4 5 1 6 7 7 9 11 13 12 11 10 9 8 7 4 4 5 5 6 6 5 3 3 5 6 5 6 7 8 7 8 7 6 8 10 11 12 14 15 17 17 17 18 18 17 16 15 15 15 15 15 15 15 16 16 17 17 18 18 18 18 18 18 17 17 17 16 15 16 16 16 16 16 15 15 14 13 13 14 13 13 13 13 13
16 14 15 17 19 18 11 5 5 3 3 3 2 3 4 4 5 7 8 11 12 11 10 9 7 7 6 5 4 4 4 5 5 5 3 3 6 6 6 5 6 8 7 8 7 6 7 10 11 12 14 16 18 18 17 18 17 16 15 14 14 14 14 15 15 14 15 16 16 17 18 17 17 17 18 18 18 17 17 16 15 14 15 16 16 16 15 14 14 14 15 16 16 16 16 16 16
18 16 16 18 19 19 14 9 7 4 3 3 2 2 4 3 2 2 6 9 9 9 8 8 8 7 6 5 3 4 4 5 5 6 4 4 5 6 6 6 6 7 7 7 7 6 6 10 12 12 14 17 18 18 17 17 16 16 14 14 14 13 14 15 15 14 15 16 16 17 17 17 16 16 16 17 17 17 16 15 14 14 14 15 15 15 15 15 15 16 17 18 20 20 19 19 19
21 21 20 20 19 18 15 12 9 5 2 2 2 2 3 3 4 3 4 8 7 8 8 8 9 6 5 4 3 4 4 4 4 5 5 4 5 6 7 7 6 8 8 7 7 7 7 10 12 13 15 17 18 18 17 17 16 15 14 13 13 13 13 15 15 15 15 15 15 16 17 16 15 15 15 16 16 15 15 14 14 13 14 14 15 15 16 16 16 17 18 20 20 21 20 20 20
23 22 21 19 19 17 13 12 10 7 3 2 2 2 1 3 5 2 6 8 7 10 10 9 8 5 4 4 4 4 3 4 4 4 5 5 6 6 7 7 8 9 9 8 8 7 7 10 13 14 16 18 18 17 17 16 16 15 14 13 12 12 13 15 14 14 15 15 15 16 16 15 14 14 14 14 14 14 14 14 14 14 14 14 15 16 16 16 17 17 19 19 19 20 20 20 20
21 20 18 17 17 15 10 10 11 8 5 4 4 3 1 3 5 4 5 6 7 10 11 9 6 4 4 4 4 3 3 4 4 3 4 5 6 6 7 8 8 9 9 8 8 8 8 10 14 15 16 19 19 17 17 16 15 15 14 13 12 12 13 15 15 14 14 15 15 15 15 15 14 13 13 13 13 12 12 13 13 14 14 15 15 16 16 16 17 17 18 18 18 19 19 20 20
17 18 17 18 17 13 10 11 12 10 9 8 7 5 3 1 3 5 4 4 6 8 8 6 4 3 3 4 4 3 3 3 3 3 3 4 5 6 7 8 9 9 9 9 8 8 8 10 14 15 17 19 19 17 16 16 15 14 14 13 13 13 14 15 15 14 14 14 15 15 15 14 13 12 11 12 12 11 11 12 12 13 14 15 15 16 16 16 17 17 17 17 17 18 19 19 19
16 16 17 18 18 15 12 12 12 10 9 9 9 7 5 4 2 2 2 2 3 3 4 4 3 3 3 4 3 3 3 3 3 3 3 4 5 6 7 8 10 10 9 9 9 8 9 10 14 16 17 20 19 17 16 15 15 14 14 14 13 13 14 14 15 15 14 14 14 15 14 13 11 10 10 11 10 10 10 11 12 13 14 14 15 15 15 16 17 17 17 16 16 16 17 18 18
15 14 13 14 15 15 14 14 13 10 9 11 10 8 6 5 5 3 2 0 0 2 2 3 4 4 5 4 4 4 4 3 2 2 4 6 6 6 7 8 10 11 10 9 8 9 9 11 14 16 17 20 20 18 16 15 15 14 14 14 14 13 13 13 14 15 14 13 13 14 14 12 11 10 10 10 9 9 9 10 11 13 14 14 14 15 15 16 16 17 17 16 16 16 16 17 17
16 14 12 10 10 12 14 12 11 11 11 12 11 9 8 7 6 5 5 4 3 4 5 4 5 5 6 6 5 5 4 3 3 2 4 7 7 6 7 8 10 12 11 9 8 8 9 12 15 16 17 20 20 18 16 16 15 15 14 14 14 13 13 13 13 14 13 12 12 12 12 11 11 10 9 9 8 8 8 9 11 12 13 13 13 14 14 15 14 15 16 16 16 17 16 16 17
18 16 14 12 9 10 12 11 10 11 12 11 11 10 9 8 7 5 5 5 5 6 6 6 7 7 6 6 6 6 5 4 4 4 6 8 8 7 7 8 10 12 12 11 9 9 9 13 16 16 18 21 21 19 17 16 15 14 14 15 14 14 13 12 12 12 12 12 11 11 11 10 9 9 9 8 8 8 8 9 11 12 12 12 12 12 13 13 13 14 14 15 15 16 17 17 17
17 17 16 15 14 11 11 10 9 11 11 10 11 11 9 7 7 6 6 6 7 8 9 8 8 8 7 7 7 6 6 5 6 6 7 9 9 8 7 7 10 12 12 11 10 9 9 13 18 17 18 22 21 19 18 16 15 14 14 14 14 13 13 12 12 11 11 11 10 10 10 9 9 8 8 8 8 9 9 10 11 11 11 11 12 12 12 12 12 12 13 14 14 15 16 17 18
18 18 20 20 20 17 11 9 10 11 12 12 14 12 8 6 5 5 6 7 8 11 12 10 8 8 8 8 8 7 7 7 7 7 8 10 9 9 8 7 9 12 13 11 10 9 9 13 18 18 20 23 21 19 18 16 15 15 14 13 12 12 12 12 12 11 10 10 9 9 9 8 7 7 7 8 9 9 10 11 11 11 11 11 12 12 11 11 11 11 12 12 13 14 15 16 16
19 21 24 24 24 22 19 13 12 12 12 12 15 12 8 6 3 1 3 5 7 11 13 12 11 10 9 8 8 8 8 9 8 7 8 9 9 9 8 8 9 11 13 12 11 10 10 14 18 19 22 23 21 20 18 16 15 14 15 14 13 12 12 12 12 10 10 9 9 8 8 8 7 6 7 8 9 11 11 12 11 11 11 12 12 12 11 11 10 11 11 11 12 12 13 14 14
21 22 22 22 23 24 24 21 17 14 13 12 12 11 8 7 3 1 3 4 7 10 12 13 13 12 10 8 9 9 9 10 9 7 8 8 8 8 8 8 8 10 13 13 12 12 12 16 18 19 23 24 22 21 19 17 15 14 15 14 14 13 12 12 12 10 9 9 8 8 8 8 7 7 7 9 10 11 11 11 11 11 11 12 13 13 12 11 11 11 10 10 10 11 11 11 11
23 22 18 18 20 23 24 22 19 17 15 13 9 8 8 6 1 4 5 6 8 11 12 14 14 14 12 9 10 11 10 9 8 7 7 7 8 8 8 8 9 10 13 14 14 13 14 17 18 20 24 25 22 21 20 18 16 14 14 14 13 13 12 12 12 10 9 9 9 8 8 8 8 7 8 10 11 12 11 11 11 11 12 12 12 13 12 11 11 11 10 10 10 10 10 10 9
24 23 20 17 17 22 24 21 20 17 14 11 7 8 8 4 5 7 6 8 10 11 11 13 14 14 12 10 10 11 10 8 8 8 8 8 8 9 8 9 10 10 12 14 14 13 15 17 19 21 24 24 22 21 19 18 15 13 12 12 12 12 12 11 11 10 9 9 9 9 9 8 8 9 10 11 12 12 12 11 11 12 11 11 11 12 12 11 11 11 10 10 9 9 9 8 8
25 23 21 19 17 21 24 22 22 18 12 12 10 13 14 10 10 10 8 11 12 11 11 12 13 13 12 10 10 11 9 8 9 9 9 9 9 10 9 9 10 10 11 13 13 13 15 17 19 22 24 24 22 21 19 17 14 13 12 11 10 10 10 10 10 10 9 9 8 8 9 9 10 10 11 12 12 12 12 11 12 12 11 10 11 11 11 11 10 11 10 9 9 8 8 8 8
25 23 21 20 19 21 25 24 24 21 17 18 19 20 19 16 13 9 11 15 13 11 11 11 12 13 13 11 9 8 9 9 9 10 11 10 10 11 10 9 9 10 11 13 14 14 15 18 21 23 25 24 22 20 18 16 14 13 12 11 9 9 9 9 9 9 9 9 9 9 9 10 10 11 11 12 11 11 11 11 11 11 10 9 10 10 10 10 10 10 10 9 8 7 7 7 7
27 23 20 19 18 21 26 26 24 22 22 24 24 24 20 17 15 12 14 17 14 12 11 11 12 12 14 14 11 10 10 9 9 10 12 11 11 11 10 8 8 9 12 14 15 15 16 18 21 24 25 23 21 19 17 16 15 14 14 13 12 11 10 9 9 9 9 9 9 9 10 10 10 11 11 12 11 11 11 11 10 10 9 9 9 9 9 9 9 9 9 8 8 7 7 7 7
28 24 20 20 20 22 27 29 27 23 23 24 24 24 22 19 18 17 17 16 14 13 11 11 11 11 13 15 15 13 11 9 9 10 11 11 10 10 9 8 7 8 11 14 16 15 15 17 20 24 24 23 21 20 18 16 15 15 15 14 13 12 11 11 10 9 9 9 10 10 10 11 10 10 10 11 11 11 10 10 9 8 9 9 9 8 8 8 8 8 8 7 7 7 7 7 6
29 26 24 23 23 26 31 33 32 29 27 26 22 21 24 26 23 20 19 17 16 14 11 10 10 10 12 13 14 14 12 10 9 10 12 12 11 11 10 9 9 8 9 12 15 16 16 16 19 23 24 23 21 20 19 17 16 16 15 14 12 12 12 12 11 10 9 9 10 11 11 11 10 10 10 10 10 10 9 8 7 7 7 8 8 7 7 7 8 7 7 7 6 7 7 7 6
29 27 27 27 27 29 34 34 33 34 33 31 27 25 26 28 24 22 21 19 18 14 8 8 8 9 10 11 13 14 14 11 10 10 11 13 13 13 12 11 10 8 7 10 15 17 17 17 19 22 24 23 22 20 19 18 17 17 16 14 13 12 13 13 12 10 10 10 10 11 11 11 10 10 9 9 9 8 8 8 7 6 6 6 7 7 7 7 7 7 6 6 7 7 7 6 5
29 28 29 30 30 31 34 36 35 38 39 34 32 31 29 28 26 25 23 21 17 11 7 6 7 9 10 10 11 14 15 14 12 11 10 12 14 15 15 14 11 9 8 9 13 16 17 18 18 21 23 22 22 21 19 18 17 16 15 14 13 13 13 14 13 12 10 10 10 10 11 11 11 10 10 9 9 9 8 7 7 6 5 5 6 7 7 7 7 7 6 6 7 7 7 6 6
30 30 30 31 32 32 35 37 37 40 40 36 33 34 32 32 32 30 26 21 15 11 11 10 8 8 10 10 11 12 14 15 15 14 13 14 15 15 16 14 11 10 8 8 10 14 17 18 18 20 23 23 22 21 20 19 18 16 14 14 14 13 14 14 14 13 12 11 10 11 11 11 11 10 10 10 9 9 8 7 6 5 5 5 6 7 7 8 8 8 8 8 8 7 7 6 6
31 32 32 31 32 33 35 37 39 40 39 36 35 35 34 34 34 31 27 22 15 11 12 14 12 10 9 10 11 11 13 15 16 16 15 15 15 14 14 12 11 10 8 7 9 12 15 18 19 20 22 23 22 21 20 19 18 17 15 14 14 13 13 14 14 14 13 12 11 11 11 11 10 10 10 10 9 9 8 7 7 6 5 5 6 7 8 9 9 9 9 9 9 8 7 7 7
33 32 32 32 33 34 35 37 39 40 36 34 37 38 37 36 34 31 27 22 17 11 10 14 14 11 10 10 10 12 14 16 17 17 16 16 15 14 13 12 11 10 9 9 10 12 15 17 19 20 21 22 23 21 20 20 19 18 16 15 15 14 14 14 14 13 12 12 11 11 11 11 11 10 10 10 10 10 9 8 8 7 7 6 7 8 9 10 10 11 11 10 10 9 8 8 8
35 33 32 33 34 35 37 37 38 38 33 31 36 41 41 39 35 32 27 22 19 16 15 15 14 12 11 11 11 12 14 15 16 17 17 16 16 15 14 13 12 12 12 12 12 13 15 17 20 20 21 22 23 22 21 20 20 19 17 16 16 15 14 14 14 13 12 12 11 11 11 11 11 11 11 11 11 11 10 9 9 8 8 8 8 8 10 11 12 12 12 11 10 9 8 9 9
34 34 34 34 34 34 35 35 35 34 32 31 36 42 45 41 34 29 27 24 22 20 18 20 20 17 15 13 12 13 13 15 17 18 17 17 16 15 15 13 12 12 13 13 13 14 16 18 20 22 22 22 23 23 22 21 21 19 18 17 17 16 15 14 15 14 14 13 12 12 11 11 11 11 11 11 11 11 11 10 9 9 8 8 8 9 11 12 13 13 12 11 10 9 8 8 8
31 33 34 34 35 33 31 32 32 32 33 33 37 43 44 39 33 30 29 29 27 23 22 22 23 21 20 16 13 13 13 14 16 18 19 18 17 16 15 14 12 12 13 12 12 14 16 19 21 23 23 23 23 24 24 23 22 21 20 18 18 17 16 15 14 14 14 14 14 13 12 12 11 11 12 12 12 12 11 10 10 9 8 8 8 9 11 13 13 13 12 11 10 9 9 8 8
31 31 32 32 32 30 29 30 31 32 34 34 35 38 38 35 33 32 31 30 28 26 26 24 21 21 21 18 15 14 14 13 14 17 19 19 18 17 16 14 13 12 12 11 11 13 16 19 22 24 24 24 24 25 25 25 23 22 21 19 18 17 17 16 15 15 16 16 15 15 14 13 12 12 12 12 12 12 12 11 10 9 8 8 8 10 12 13 13 13 12 11 10 9 9 8 8
33 30 29 29 28 29 30 31 31 32 33 33 31 30 31 31 30 26 25 25 22 20 22 23 25 26 25 21 18 17 14 13 13 15 18 20 19 18 17 16 14 13 13 13 12 13 15 18 21 23 24 24 24 26 27 26 25 23 22 20 19 18 17 17 17 16 16 16 16 16 15 15 14 13 13 12 12 12 12 11 10 9 8 8 9 10 12 13 13 13 12 11 10 10 9 8 8
37 34 30 29 26 26 30 32 33 32 32 31 28 26 25 23 20 17 16 17 15 12 14 17 24 30 29 24 21 21 19 16 14 14 15 17 19 19 18 16 15 14 14 14 14 13 13 15 17 20 23 25 26 27 29 28 26 24 23 21 20 19 18 18 17 17 16 16 16 16 16 16 16 15 14 13 13 12 12 11 9 9 8 8 9 10 12 13 12 12 12 11 11 10 10 9 8
37 35 33 33 30 28 29 32 32 31 30 28 26 23 18 14 15 19 20 20 20 16 13 14 19 23 24 24 24 25 24 19 15 14 12 13 17 19 19 18 17 15 16 16 15 13 12 13 14 17 20 24 25 26 26 27 27 25 24 23 21 20 19 19 18 17 16 16 16 16 16 16 16 16 15 15 14 13 12 11 9 8 7 8 9 10 11 12 12 12 12 11 11 10 10 9 8
35 34 33 34 34 33 32 32 32 32 30 28 26 22 17 16 20 24 24 26 28 25 18 15 16 17 17 22 25 24 24 23 21 18 14 13 17 20 20 20 20 18 18 18 16 14 13 13 13 15 17 20 22 23 23 24 26 26 25 24 23 22 20 20 19 18 17 17 16 16 16 16 16 16 16 15 15 14 13 11 9 8 7 7 8 9 10 11 12 12 12 11 10 9 9 9 8
35 37 37 36 36 36 35 33 34 34 32 31 29 25 23 24 25 25 25 25 27 27 22 15 14 16 15 18 23 24 24 24 22 19 17 15 16 20 22 22 21 19 18 18 16 15 14 13 13 14 16 17 19 21 21 22 24 25 25 25 24 24 22 22 20 19 18 17 16 16 16 16 16 16 16 16 15 15 13 11 9 8 7 7 7 8 9 10 11 12 12 11 10 9 8 7 7
Wind_Direction
185 189 193 183 174 179 233 315 299 293 288 290 292 295 302 304 310 217 162 151 151 136 135 131 130 134 109 104 140 121 88 78 66 76 77 69 65 51 47 66 82 93 99 105 105 106 108 111 113 114 114 113 113 112 111 109 106 104 103 104 106 107 105 103 103 104 105 107 109 111 112 112 112 113 112 111 110 110 110 111 114 115 115 113 110 105 98 91 89 88 83 78 76 73 72 71 70
210 208 208 210 220 247 277 300 293 297 296 296 299 301 312 317 312 198 149 143 145 130 132 128 125 132 117 126 134 87 80 80 61 68 74 70 69 56 40 56 83 93 99 102 103 105 108 111 112 112 112 113 113 113 111 107 104 103 105 107 109 107 104 103 104 104 105 106 108 111 114 117 119 119 117 115 113 111 111 112 113 116 117 115 112 106 98 92 92 92 87 83 81 79 75 73 70
230 230 229 232 243 259 272 281 286 296 295 294 302 305 315 321 307 177 157 144 139 131 130 125 123 132 124 126 109 67 73 78 62 57 65 69 66 61 51 58 83 92 99 101 102 104 108 111 110 110 112 113 114 112 109 107 107 107 110 112 111 107 104 103 102 101 101 104 109 114 119 122 122 120 117 114 112 111 111 112 113 115 115 114 111 104 97 95 96 96 95 90 86 81 76 72 70
242 245 247 249 254 260 267 273 279 288 290 288 299 308 317 321 287 167 162 142 134 133 127 121 117 126 120 106 85 72 76 77 70 53 52 70 65 58 64 68 87 94 99 100 101 104 107 108 108 111 113 113 113 111 109 109 111 114 118 119 115 109 105 102 100 99 100 104 111 116 119 120 119 119 117 115 114 113 112 111 111 112 111 110 108 103 99 98 98 98 98 94 87 81 77 72 70
251 256 257 255 257 258 263 267 270 277 284 283 286 306 328 331 152 152 150 135 132 130 126 123 110 110 105 84 70 69 75 77 75 59 38 70 72 58 74 81 91 99 99 99 100 102 104 105 109 112 112 112 112 111 111 113 116 120 124 122 117 110 104 102 100 101 103 106 109 112 113 112 114 116 116 117 119 117 114 110 108 107 106 106 107 107 104 102 100 100 102 98 87 81 77 72 70
258 265 264 257 256 257 259 259 262 268 276 284 284 287 353 112 141 142 137 135 131 130 131 128 110 106 105 91 69 58 60 65 69 68 39 68 80 68 81 91 98 104 101 98 96 97 101 105 110 112 113 113 113 113 113 115 119 123 123 117 112 108 105 105 105 104 104 104 105 107 108 108 113 116 117 119 121 118 111 105 103 103 103 105 108 108 106 105 102 102 104 97 85 81 78 72 69
264 271 266 254 253 253 256 258 267 273 281 295 304 277 166 131 141 144 137 136 129 131 135 125 112 110 106 93 76 61 54 53 61 73 56 67 86 84 86 100 109 108 101 97 95 95 101 107 111 113 114 115 115 114 114 116 119 120 117 113 110 108 107 108 107 106 105 105 105 106 106 109 113 115 116 116 114 110 104 100 100 101 102 104 106 106 105 104 101 101 99 91 83 81 78 73 71
267 271 259 253 254 250 258 267 277 284 292 297 308 256 175 140 143 147 135 135 133 129 129 123 121 117 105 90 77 71 64 56 58 72 64 67 87 93 93 107 115 109 101 97 96 98 103 110 113 115 116 116 114 113 114 116 117 116 114 113 112 108 107 107 107 106 106 106 106 107 108 110 110 110 110 108 107 104 101 99 98 98 101 104 105 106 105 103 100 96 92 86 82 80 78 76 75
265 262 249 252 252 254 281 286 285 291 297 289 281 219 174 143 145 150 135 140 141 128 127 127 123 115 101 90 78 74 72 63 61 67 64 68 86 98 101 108 111 106 102 98 98 101 107 112 114 116 116 115 114 114 116 118 116 115 116 116 113 111 110 109 109 107 107 108 108 108 108 107 104 102 103 105 106 104 101 100 97 95 98 102 104 105 103 100 97 94 89 85 82 80 80 80 78
255 250 248 252 248 272 294 291 295 293 291 285 262 200 166 144 147 152 140 144 139 125 129 134 126 109 90 87 80 74 74 68 66 67 66 67 83 102 109 110 105 99 101 101 101 104 111 114 115 116 115 116 117 119 119 118 116 116 118 117 115 116 115 112 110 110 110 110 110 109 106 102 99 99 100 102 104 103 102 99 94 93 96 100 104 104 102 99 97 95 92 88 83 81 82 83 81
247 245 250 256 256 280 289 293 311 295 278 270 239 175 156 146 147 148 141 143 133 127 137 145 139 112 89 88 85 77 73 70 66 67 68 65 79 102 111 115 110 98 98 101 103 107 114 115 114 114 115 117 119 120 120 118 117 119 118 116 117 118 117 114 111 112 112 113 113 110 105 100 99 99 99 100 102 103 102 100 98 97 98 101 103 102 100 96 94 93 92 90 86 85 86 85 83
240 237 248 261 268 282 286 304 321 292 258 235 204 157 150 150 146 146 142 142 137 136 143 153 147 111 98 95 91 83 76 69 66 64 64 64 77 100 111 117 113 103 98 98 104 109 114 115 114 114 114 116 118 120 120 119 120 120 118 116 118 117 115 113 113 114 114 115 113 109 104 101 102 101 101 103 103 102 102 104 105 104 101 100 100 100 97 94 92 92 91 91 91 92 92 90 87
236 231 240 259 279 291 289 312 328 297 235 194 179 153 152 154 150 149 147 147 144 143 146 158 145 114 113 108 98 92 83 71 68 65 63 65 73 98 113 118 113 106 102 99 104 112 117 116 113 113 114 116 118 122 123 122 123 121 118 117 116 115 113 114 116 116 115 114 110 106 102 101 102 103 103 102 101 99 100 102 103 103 101 99 99 99 97 96 94 92 92 93 94 95 95 94 90
235 230 234 252 280 300 292 300 336 350 107 149 165 155 154 154 152 153 155 157 151 147 152 162 147 130 135 117 105 101 93 76 71 67 65 67 71 92 114 119 113 107 105 102 107 116 120 118 114 114 117 119 122 126 125 123 123 122 119 117 115 115 116 116 116 114 113 111 107 105 102 101 100 101 100 98 96 95 96 96 96 97 97 98 98 97 97 97 96 95 95 95 96 97 98 96 91
233 232 232 241 269 296 289 287 341 3 69 132 146 149 153 161 161 157 160 163 155 149 153 162 149 142 141 115 108 106 100 87 74 70 68 70 74 87 111 118 111 104 103 103 110 120 125 122 120 120 121 121 124 126 125 124 124 122 120 118 116 115 113 113 112 112 111 109 107 104 102 101 98 97 96 93 93 92 92 91 92 94 95 96 95 96 97 98 99 98 97 96 97 98 98 96 93
229 232 230 232 258 281 281 287 342 346 349 130 144 152 161 172 170 160 161 165 158 152 154 165 160 151 137 113 109 106 103 97 79 71 71 71 74 84 107 118 111 105 102 103 112 124 130 126 123 123 122 121 123 126 126 126 125 123 122 118 114 112 110 109 110 110 110 107 104 102 100 99 97 96 94 93 93 92 91 91 93 94 95 96 98 99 99 100 99 98 97 96 96 96 96 97 96
228 231 229 228 245 263 273 285 315 327 347 58 161 171 165 169 177 176 173 167 162 159 156 171 171 153 129 110 107 107 106 102 81 71 73 72 73 81 103 118 113 107 104 104 112 126 133 128 124 123 121 121 125 128 129 127 124 123 120 116 112 110 110 110 110 110 108 106 103 102 101 100 98 97 96 95 95 95 94 93 95 95 97 98 100 101 100 99 98 97 95 93 92 92 93 94 96
224 226 225 225 234 246 256 266 294 311 324 309 227 183 160 165 187 187 181 173 167 159 150 172 174 143 116 109 104 107 107 101 85 72 73 74 73 77 100 117 114 109 106 108 116 130 135 128 125 124 123 123 126 129 130 127 123 121 118 116 114 112 111 110 109 109 108 106 105 104 103 100 98 98 98 96 95 94 94 95 96 96 97 98 99 98 96 94 90 90 89 87 86 87 90 92 94
217 220 221 223 230 234 235 230 310 319 294 299 222 169 159 165 182 177 175 180 172 151 145 167 163 135 119 114 104 108 105 98 89 73 78 82 78 77 95 115 119 114 113 113 118 133 137 129 127 127 125 124 127 129 129 126 122 120 119 118 116 114 112 110 108 107 107 107 107 107 105 102 100 100 98 96 95 94 94 94 94 93 93 93 92 91 89 85 83 85 84 82 80 81 86 89 91
216 217 219 223 230 233 224 196 345 6 339 328 253 162 163 168 182 178 168 178 172 150 156 165 151 138 130 118 110 110 104 99 95 79 83 93 91 86 96 113 125 123 121 119 117 132 138 131 129 130 128 127 127 130 131 129 124 122 121 119 118 116 113 111 109 109 107 107 108 108 107 105 103 101 99 96 93 90 90 90 90 89 87 87 87 86 84 81 81 81 79 76 77 79 82 85 86
217 217 216 219 226 231 223 189 179 18 43 1 7 164 176 172 178 178 166 172 169 160 172 165 148 142 132 126 121 111 106 103 102 91 88 105 104 94 102 118 132 131 128 124 116 130 140 134 133 132 131 129 129 132 133 131 127 125 122 120 118 116 115 114 113 112 110 108 109 108 107 106 103 100 97 94 91 87 85 84 86 86 85 85 85 84 82 80 79 77 76 75 76 80 83 86 89
214 217 213 215 219 225 218 184 189 199 151 25 32 29 157 176 180 179 174 172 170 176 186 168 148 139 129 133 130 115 115 111 109 105 95 118 115 98 105 122 136 139 135 129 121 130 144 141 137 136 134 132 132 134 134 131 127 125 122 120 118 117 116 115 114 113 111 110 109 109 108 106 103 100 97 94 91 88 85 82 82 83 84 83 82 82 81 80 78 77 77 76 76 80 84 87 89
214 217 214 213 216 218 210 187 207 218 233 355 29 21 25 206 203 181 180 181 180 188 187 166 147 141 136 139 131 118 122 117 114 114 105 124 122 108 108 121 138 145 142 133 128 133 146 149 145 139 135 133 134 135 134 130 126 123 122 121 119 118 117 115 113 113 111 110 109 110 109 107 105 103 99 95 92 89 87 84 82 81 82 82 82 81 79 77 77 78 79 80 81 82 85 87 88
215 216 216 217 217 214 203 203 229 256 284 282 337 349 333 273 195 172 192 192 185 182 172 154 141 146 145 138 132 127 126 122 122 125 132 135 129 123 117 122 140 150 147 136 133 134 144 154 152 142 136 135 136 136 135 130 125 124 125 124 123 121 118 114 113 112 110 109 111 112 112 111 109 105 100 96 92 88 86 85 84 83 83 83 83 83 81 78 77 80 83 87 89 89 88 90 91
214 210 212 220 223 216 199 194 218 240 289 299 314 308 325 326 135 166 210 188 169 160 159 150 147 157 149 135 143 148 136 129 131 142 155 150 140 138 130 126 142 155 149 138 139 139 143 156 157 147 140 140 139 138 136 130 126 125 125 125 126 123 118 115 114 111 109 109 114 116 116 116 114 109 103 97 92 88 86 86 87 88 88 88 88 88 86 84 82 84 88 92 94 93 91 91 92
218 213 211 217 225 222 203 194 198 189 220 281 281 269 322 7 35 7 155 151 138 139 150 151 149 159 148 140 164 163 147 133 136 154 162 156 149 146 138 131 143 157 153 146 147 145 145 157 161 153 145 144 143 141 138 132 128 125 124 125 126 122 119 117 114 113 111 113 118 120 120 120 118 113 105 99 94 90 89 89 92 95 97 96 95 93 90 88 88 89 92 93 93 93 93 93 94
224 222 221 223 229 230 213 202 193 173 177 229 243 230 318 16 19 25 122 119 117 132 143 148 150 158 149 154 175 173 156 135 140 166 167 163 161 157 147 138 146 159 157 154 155 152 148 157 162 157 150 149 148 146 141 135 130 126 125 124 123 122 120 118 116 116 117 120 123 124 124 124 121 114 108 103 98 93 91 92 96 102 104 103 100 97 94 92 91 91 91 91 92 93 94 94 93
227 228 229 232 237 237 224 212 202 198 215 228 238 229 231 23 48 76 106 105 116 134 141 145 151 154 152 166 180 186 173 143 152 185 185 170 167 169 158 144 148 158 160 160 161 158 150 156 162 159 156 153 152 150 145 139 133 128 126 125 124 124 123 121 118 118 120 124 127 128 127 127 124 119 112 106 99 94 91 93 98 104 107 106 104 102 100 97 95 93 92 92 93 93 93 93 92
224 226 227 231 233 231 225 220 213 216 232 237 246 254 260 300 51 62 74 98 110 132 139 141 151 153 169 183 181 189 189 171 174 192 202 179 168 173 167 152 149 156 165 165 165 162 151 154 161 162 161 157 155 154 148 143 136 130 128 127 127 126 124 122 121 121 123 127 129 129 127 127 127 122 113 104 98 92 88 89 96 104 107 107 107 107 106 104 100 95 92 90 89 89 89 91 91
220 220 223 228 228 222 220 222 217 217 234 242 245 251 258 263 274 38 67 86 89 137 146 141 161 179 207 206 192 197 200 196 192 192 197 187 178 179 175 160 152 158 169 171 169 165 153 155 162 162 163 160 158 157 153 147 139 133 132 131 130 127 124 123 122 123 126 129 131 129 128 128 126 120 112 104 98 90 84 86 94 102 105 107 111 114 113 109 104 99 96 93 89 86 85 86 87
228 225 226 232 232 224 221 222 216 211 227 241 240 241 246 249 249 245 231 240 63 240 227 179 180 194 213 221 211 210 217 209 194 197 189 186 191 190 182 167 158 160 169 176 176 169 156 156 162 161 163 163 159 158 157 151 142 137 136 135 132 126 124 125 123 123 127 130 131 129 128 129 126 120 112 104 98 91 87 91 99 104 107 110 114 116 114 110 107 104 101 99 95 89 84 83 83
232 231 230 235 241 234 226 220 214 212 219 232 235 233 237 242 244 247 250 251 244 245 248 232 217 210 212 222 221 216 223 207 185 198 185 183 195 202 191 172 165 166 168 176 183 175 158 157 162 161 163 165 161 159 160 154 146 143 141 138 134 129 127 130 126 125 129 131 129 127 126 127 125 120 111 102 96 93 94 100 103 105 105 106 109 112 112 111 109 106 104 102 98 94 89 84 84
228 228 224 222 230 244 238 219 209 215 215 222 228 220 219 228 227 229 237 239 242 241 238 235 233 229 220 219 223 220 219 201 189 195 184 183 194 208 202 178 170 170 169 175 184 179 162 159 162 162 165 166 162 161 161 157 150 147 145 142 138 135 135 135 130 129 130 131 131 129 127 126 123 118 111 104 99 95 96 98 98 96 95 98 103 107 109 111 110 107 104 102 98 95 92 89 88
222 219 215 209 209 224 241 239 227 223 214 200 201 200 191 203 215 217 223 227 239 242 236 233 236 241 234 224 225 227 219 204 199 196 186 185 193 208 211 185 173 174 173 175 181 180 167 161 160 161 167 167 164 162 160 159 154 150 149 146 143 141 140 136 133 134 132 131 132 131 128 125 122 117 111 106 101 98 98 97 94 93 93 96 102 105 108 111 111 108 104 101 98 95 91 92 93
215 210 207 203 200 197 204 242 244 235 226 191 175 180 171 174 203 224 234 232 236 242 239 233 232 240 240 231 227 225 221 213 208 200 188 187 193 205 211 195 180 178 177 177 177 178 170 162 159 160 167 168 165 161 160 161 157 153 152 150 149 144 142 139 136 137 137 134 133 131 129 126 124 120 118 116 112 111 110 107 101 96 94 96 100 103 107 112 111 107 103 101 102 98 94 92 93
215 215 212 205 203 194 185 203 223 228 234 202 175 173 161 148 156 223 261 246 239 242 239 231 229 234 235 234 234 229 223 220 215 204 194 192 197 208 209 203 194 183 180 179 176 176 168 163 160 160 165 167 165 161 160 164 162 158 156 154 152 148 146 143 139 140 141 140 139 136 133 131 129 129 132 131 125 123 121 114 107 100 95 94 96 99 104 108 109 107 103 102 103 102 98 94 92
217 221 223 217 213 204 193 199 211 214 225 215 191 181 156 130 112 353 282 256 243 239 236 232 230 234 233 233 239 233 226 225 219 209 201 195 202 215 211 205 205 189 183 182 178 176 169 165 164 163 165 166 166 163 162 166 167 164 160 156 153 151 150 145 140 141 143 141 140 138 136 138 141 143 143 137 129 126 122 116 110 103 96 92 92 95 100 104 106 106 104 102 102 103 101 97 91
219 219 220 223 222 212 201 206 216 216 219 220 210 202 170 133 104 289 270 256 246 239 238 234 231 234 236 235 237 235 233 230 222 217 213 200 203 219 212 204 212 198 186 185 183 179 170 167 167 166 167 167 167 167 164 167 170 167 160 156 154 152 149 144 139 139 140 141 141 140 139 144 150 154 150 139 131 128 125 120 112 102 94 89 89 91 94 99 102 105 105 101 100 102 102 99 91
222 218 211 211 217 212 201 203 217 219 223 227 224 231 209 182 261 264 256 258 250 243 242 237 230 231 233 233 232 232 233 229 221 219 218 205 202 215 212 204 214 208 192 189 189 182 171 169 169 168 169 169 169 169 167 168 169 165 159 154 152 150 146 142 138 138 139 140 141 142 144 148 152 153 149 140 135 134 130 124 114 102 94 88 87 88 90 93 98 101 102 99 98 99 101 102 95
224 223 214 203 201 203 194 193 208 212 226 236 227 231 227 223 243 249 255 260 251 245 244 238 232 230 226 222 224 232 234 227 222 217 215 208 201 209 210 207 215 213 195 190 194 188 174 172 172 170 172 172 172 172 169 167 165 160 156 148 145 145 144 141 139 139 139 139 141 144 150 152 152 150 147 141 139 136 131 125 116 108 102 95 92 91 91 93 95 96 96 96 97 98 101 102 96
222 223 218 207 195 195 189 189 202 205 214 225 220 222 223 221 226 237 256 255 250 249 246 240 236 230 222 213 218 236 237 236 233 220 212 207 201 203 204 205 214 213 200 192 197 196 182 177 175 172 174 175 175 174 170 167 163 157 151 143 143 147 148 146 143 142 142 142 143 148 154 155 152 150 147 143 140 135 131 125 118 113 109 104 99 94 94 94 94 94 94 94 96 98 102 100 94
219 218 216 211 197 189 186 188 199 208 215 219 221 223 222 219 219 227 245 248 248 250 245 242 239 232 225 221 228 237 236 241 242 223 213 206 202 204 200 200 211 213 206 200 200 201 191 183 178 175 176 177 177 175 171 169 165 160 157 154 157 159 156 152 147 145 146 148 147 148 155 155 151 150 148 145 141 138 134 129 124 120 115 108 101 96 93 91 90 92 94 95 94 96 98 93 86
219 215 210 207 197 185 184 189 193 204 219 223 225 229 227 222 220 224 233 241 246 244 244 246 243 237 233 231 234 234 231 234 233 223 217 209 204 206 199 195 205 213 212 208 205 204 198 190 183 178 178 180 179 176 173 172 169 166 167 166 165 161 156 153 151 150 151 153 152 150 154 154 151 151 151 149 145 142 137 133 131 125 116 108 101 96 91 89 91 90 89 89 88 88 87 81 76
217 213 208 204 198 185 184 193 193 194 212 221 222 226 228 225 222 218 220 231 238 234 236 243 240 241 242 240 235 226 222 224 224 223 216 209 206 209 206 199 202 210 212 213 211 208 202 196 189 183 181 182 181 179 176 174 173 174 173 170 166 160 156 155 154 155 157 158 157 155 155 154 153 156 157 154 149 143 138 138 141 132 116 108 104 99 94 94 94 89 84 82 81 80 78 76 76
215 212 209 206 202 192 189 197 198 195 204 216 219 222 225 225 219 212 213 224 229 222 229 242 235 239 242 243 237 223 217 215 212 213 211 211 210 210 212 208 204 206 207 211 214 213 207 200 195 188 185 185 184 182 180 177 178 179 177 169 163 161 160 158 157 160 163 163 163 162 161 160 158 161 164 162 158 154 151 150 150 142 125 114 108 102 100 100 98 95 93 85 81 81 81 83 86
216 211 211 210 207 202 197 200 202 200 204 211 218 222 226 226 220 218 222 228 226 210 206 222 226 233 233 233 231 223 220 215 209 214 223 225 219 213 213 212 209 205 202 205 212 218 214 204 199 194 190 189 188 186 183 181 182 183 179 167 163 165 164 161 161 165 168 168 170 170 169 169 165 167 170 172 171 169 167 161 153 147 138 124 112 105 103 102 103 107 106 94 87 88 90 91 93
219 212 212 212 211 208 205 204 205 206 207 208 215 222 226 228 229 230 232 236 236 220 205 203 208 224 226 226 227 224 225 223 218 223 233 235 227 219 217 214 211 207 202 201 206 218 220 211 203 198 195 192 191 190 187 184 184 186 181 168 165 169 169 167 167 169 173 173 175 176 177 176 172 172 175 178 179 175 171 167 159 153 147 133 119 110 103 101 102 105 104 100 96 95 97 99 98
224 218 213 212 213 212 211 211 211 213 212 207 210 219 224 228 234 237 237 237 240 237 220 210 208 211 214 220 225 222 222 224 224 225 229 233 229 225 223 220 214 208 202 200 202 210 218 217 209 202 199 196 194 194 192 187 184 188 184 171 169 173 171 172 174 174 176 176 177 179 181 181 179 178 179 181 183 181 176 172 164 157 150 138 122 110 104 102 103 102 102 101 101 99 102 108 105
228 225 220 215 214 214 215 216 216 219 220 210 207 215 224 229 233 238 241 239 237 244 235 220 217 216 209 207 216 221 218 217 222 225 226 229 228 225 224 219 211 205 203 203 205 206 210 216 213 206 203 200 198 196 195 192 188 189 187 177 174 176 174 175 177 178 179 178 179 182 183 185 184 183 183 183 184 183 181 176 167 159 151 140 127 114 109 108 106 103 103 103 102 105 109 111 110
228 226 225 222 219 218 219 220 220 221 222 215 210 215 224 229 232 238 244 244 244 250 245 234 232 232 223 211 209 217 219 217 218 222 224 223 223 225 223 216 205 201 205 207 208 207 206 210 213 209 204 202 201 199 197 196 193 191 190 183 177 179 179 177 178 181 182 180 181 184 185 187 188 187 186 186 185 183 183 179 170 161 151 138 128 119 115 113 109 106 105 104 104 107 110 110 110
229 228 227 226 224 224 225 228 229 227 223 215 210 216 223 228 231 237 243 246 249 249 242 240 240 237 235 231 221 214 217 222 221 220 221 220 220 221 220 217 207 201 208 213 214 213 207 205 209 210 206 201 203 203 200 200 198 195 193 187 181 181 183 182 181 181 183 183 183 184 185 188 190 190 188 188 187 185 184 180 172 163 150 135 126 121 119 116 113 111 108 108 107 108 109 109 109
229 231 230 229 229 229 228 230 234 234 230 221 213 215 222 227 228 230 235 242 246 242 237 241 242 238 237 239 238 226 217 221 223 221 220 220 222 223 220 216 209 205 212 216 218 219 212 205 205 208 206 201 200 203 204 204 204 201 197 192 187 185 185 185 185 183 184 186 185 185 186 188 191 192 191 190 189 188 184 178 172 164 151 137 129 126 125 122 119 118 117 116 115 112 111 112 112
223 229 232 232 232 231 229 228 231 234 235 231 223 221 224 227 228 230 234 241 245 244 242 243 242 240 240 240 242 236 224 219 221 221 221 221 224 227 223 217 212 210 213 215 218 222 218 210 204 204 206 203 198 200 204 206 206 205 202 197 192 190 188 187 187 187 188 189 187 186 186 186 190 195 195 194 192 190 186 179 172 166 156 144 136 133 133 131 128 128 127 124 119 115 111 110 110
216 220 227 231 230 229 228 226 226 229 233 233 230 227 227 227 228 231 236 239 242 245 247 244 240 243 248 248 241 233 225 221 221 220 221 222 223 224 221 216 213 211 212 214 217 221 221 215 208 204 205 205 202 200 203 205 205 206 205 202 197 195 194 191 189 190 192 192 192 189 186 185 189 196 199 199 198 195 190 184 175 168 162 151 145 143 142 139 136 134 131 127 120 115 109 104 102
219 218 219 221 219 218 223 226 225 225 229 231 229 228 229 228 221 213 213 214 213 222 236 236 234 240 248 249 241 230 221 220 224 218 216 222 224 223 220 214 211 210 210 216 220 223 222 216 210 206 205 207 206 203 202 203 204 205 206 206 203 201 200 197 193 192 193 194 195 194 191 189 191 196 200 202 203 201 197 190 182 175 171 161 153 152 148 144 140 137 133 127 121 116 110 105 99
218 216 213 212 210 206 211 220 223 223 224 225 224 222 217 207 193 185 187 193 194 198 215 224 223 230 239 240 238 233 224 221 221 213 214 228 226 222 219 214 212 210 209 216 221 222 222 214 206 206 207 210 211 209 206 205 204 204 206 208 208 206 205 202 198 193 192 196 197 197 197 196 196 198 202 205 207 207 204 200 193 186 182 172 163 159 155 148 143 140 137 131 124 119 113 108 103
208 206 207 206 205 204 206 214 219 222 219 215 214 205 189 193 199 194 198 205 205 203 204 211 216 218 222 226 231 232 226 221 220 222 233 239 223 215 215 213 212 210 208 212 217 218 219 213 201 201 206 211 214 213 211 210 209 208 207 209 211 211 208 206 203 196 195 198 199 198 200 201 202 203 206 209 211 212 210 206 203 200 195 185 173 165 161 155 149 145 143 138 130 123 117 111 105
208 205 206 205 205 207 209 212 219 223 220 216 211 192 185 203 208 204 210 216 216 215 210 203 207 211 212 218 224 226 223 220 218 223 230 225 212 209 210 210 211 210 207 209 215 218 218 213 201 195 197 202 209 211 209 209 212 212 210 210 212 213 211 208 205 201 199 200 200 201 201 201 205 209 211 214 217 218 216 212 210 211 207 198 186 176 170 164 157 152 150 146 140 132 124 116 109